This demonstration page uses our WeatherBlox Daily Observations layout. Learn more.

Left ArrowRight Arrow

Hourly Observations for April 5, 2021

Temp ( °F °C ) Dew Point ( °F °C ) Humidity (%) Winds ( mph kmh ) Pressure ( in mb ) Visibility ( mi km ) Precip ( " mm )
12:15 am 00:15 Clear 55 13 28 -2 36 36 NNW 6 9 30.1 1019 10 16.0934 0 0
12:35 am 00:35 Clear 54 12 28 -2 38 38 NNW 9 15 30.1 1019 10 16.0934 0 0
12:55 am 00:55 Clear 54 12 30 -1 41 41 NNW 8 13 30.1 1019 10 16.0934 0 0
1:15 am 01:15 Clear 54 12 28 -2 38 38 NNE 9 15 30.11 1020 10 16.0934 0 0
1:35 am 01:35 Clear 55 13 28 -2 36 36 NNE 8 13 30.12 1020 10 16.0934 0 0
1:55 am 01:55 Clear 55 13 30 -1 38 38 NNE 7 11 30.12 1020 10 16.0934 0 0
2:15 am 02:15 Clear 54 12 30 -1 41 41 NNE 7 11 30.13 1020 10 16.0934 0 0
2:35 am 02:35 Clear 54 12 32 0 44 44 NNE 7 11 30.13 1020 10 16.0934 0 0
2:55 am 02:55 Clear 54 12 32 0 44 44 NE 3 6 30.13 1020 10 16.0934 0 0
3:15 am 03:15 Clear 50 10 32 0 50 50 N 3 6 30.14 1021 10 16.0934 0 0
3:35 am 03:35 Clear 50 10 30 -1 47 47 NNW 5 7 30.14 1021 10 16.0934 0 0
3:55 am 03:55 Clear 46 8 32 0 57 57 N 6 9 30.14 1021 10 16.0934 0 0
4:15 am 04:15 Clear 48 9 32 0 54 54 NNE 5 7 30.14 1021 10 16.0934 0 0
4:35 am 04:35 Clear 43 6 32 0 66 66 N 3 6 30.14 1021 10 16.0934 0 0
4:55 am 04:55 Clear 43 6 34 1 71 71 NNW 3 6 30.14 1021 10 16.0934 0 0
5:15 am 05:15 Clear 41 5 34 1 76 76 NW 5 7 30.15 1021 10 16.0934 0 0
5:35 am 05:35 Clear 41 5 34 1 76 76 W 3 6 30.16 1021 10 16.0934 0 0
5:55 am 05:55 Clear 41 5 34 1 76 76 W 3 6 30.16 1021 10 16.0934 0 0
6:15 am 06:15 Clear 39 4 34 1 81 81 WNW 5 7 30.17 1022 10 16.0934 0 0
6:35 am 06:35 Clear 39 4 34 1 81 81 NW 5 7 30.18 1022 10 16.0934 0 0
6:55 am 06:55 Sunny 39 4 34 1 81 81 NW 3 6 30.18 1022 10 16.0934 0 0
7:15 am 07:15 Sunny 43 6 32 0 66 66 N 5 7 30.17 1022 10 16.0934 0 0
7:35 am 07:35 Sunny 43 6 32 0 66 66 NNW 3 6 30.17 1022 10 16.0934 0 0
7:55 am 07:55 Sunny 46 8 32 0 57 57 NNW 3 6 30.18 1022 10 16.0934 0 0
8:15 am 08:15 Sunny 50 10 32 0 50 50 NNW 6 9 30.18 1022 10 16.0934 0 0
8:35 am 08:35 Sunny 52 11 32 0 47 47 NNW 7 11 30.17 1022 10 16.0934 0 0
8:55 am 08:55 Sunny 54 12 32 0 44 44 N 5 7 30.17 1022 10 16.0934 0 0
9:15 am 09:15 Sunny 54 12 32 0 44 44 NNW 9 15 30.17 1022 10 16.0934 0 0
9:35 am 09:35 Sunny 55 13 32 0 41 41 N 7 11 30.16 1021 10 16.0934 0 0
9:55 am 09:55 Sunny 57 14 32 0 39 39 N 8 13 30.16 1021 10 16.0934 0 0
10:15 am 10:15 Sunny 59 15 32 0 36 36 NNW 9 15 30.15 1021 10 16.0934 0 0
10:35 am 10:35 Sunny 59 15 34 1 39 39 NW 10 17 30.15 1021 10 16.0934 0 0
10:55 am 10:55 Sunny 59 15 32 0 36 36 N 12 19 30.15 1021 10 16.0934 0 0
11:15 am 11:15 Sunny 61 16 34 1 36 36 N 8 13 30.15 1021 10 16.0934 0 0
11:35 am 11:35 Sunny 61 16 34 1 36 36 N 8 13 30.14 1021 10 16.0934 0 0
11:55 am 11:55 Sunny 63 17 36 2 37 37 NW 13 20 30.14 1021 10 16.0934 0 0
12:15 pm 12:15 Sunny 63 17 36 2 37 37 NNW 12 19 30.12 1020 10 16.0934 0 0
12:35 pm 12:35 Sunny 63 17 36 2 37 37 N 7 11 30.11 1019 10 16.0934 0 0
12:55 pm 12:55 Sunny 64 18 36 2 34 34 NW 10 17 30.1 1019 10 16.0934 0 0
1:15 pm 13:15 Sunny 66 19 36 2 32 32 NNW 7 11 30.09 1019 10 16.0934 0 0
1:35 pm 13:35 Sunny 66 19 36 2 32 32 NW 7 11 30.08 1019 10 16.0934 0 0
1:55 pm 13:55 Sunny 68 20 34 1 28 28 NW 12 19 30.07 1018 10 16.0934 0 0
2:15 pm 14:15 Sunny 68 20 36 2 30 30 NNW 12 19 30.06 1018 10 16.0934 0 0
2:35 pm 14:35 Sunny 70 21 36 2 29 29 NW 10 17 30.05 1018 10 16.0934 0 0
2:55 pm 14:55 Sunny 70 21 37 3 31 31 NW 14 22 30.04 1017 10 16.0934 0 0
3:15 pm 15:15 Sunny 70 21 36 2 29 29 W 14 22 30.03 1017 10 16.0934 0 0
3:35 pm 15:35 Sunny 70 21 37 3 31 31 WNW 10 17 30.01 1016 10 16.0934 0 0
3:55 pm 15:55 Sunny 72 22 36 2 27 27 WNW 7 11 30 1016 10 16.0934 0 0
4:15 pm 16:15 Sunny 72 22 37 3 29 29 WNW 8 13 29.99 1016 10 16.0934 0 0
4:35 pm 16:35 Sunny 72 22 36 2 27 27 NNW 8 13 29.99 1016 10 16.0934 0 0
4:55 pm 16:55 Sunny 72 22 36 2 27 27 N 6 9 29.97 1015 10 16.0934 0 0
5:15 pm 17:15 Sunny 70 21 36 2 29 29 Calm 29.97 1015 10 16.0934 0 0
5:35 pm 17:35 Sunny 72 22 36 2 27 27 N 6 9 29.97 1015 10 16.0934 0 0
5:55 pm 17:55 Sunny 72 22 36 2 27 27 WNW 8 13 29.96 1015 10 16.0934 0 0
6:15 pm 18:15 Sunny 72 22 36 2 27 27 W 3 6 29.96 1015 10 16.0934 0 0
6:35 pm 18:35 Partly Cloudy 72 22 37 3 29 29 Calm 29.96 1015 10 16.0934 0 0
6:55 pm 18:55 Partly Cloudy 72 22 36 2 27 27 Calm 29.95 1014 10 16.0934 0 0
7:15 pm 19:15 Sunny 72 22 34 1 25 25 Calm 29.95 1014 10 16.0934 0 0
7:35 pm 19:35 Sunny 68 20 36 2 30 30 Calm 29.97 1015 10 16.0934 0 0
7:55 pm 19:55 Clear 66 19 36 2 32 32 NE 5 7 29.97 1015 10 16.0934 0 0
8:15 pm 20:15 Partly Cloudy 68 20 36 2 30 30 ENE 3 6 29.98 1015 10 16.0934 0 0
8:35 pm 20:35 Partly Cloudy 63 17 37 3 39 39 Calm 30 1016 10 16.0934 0 0
8:55 pm 20:55 Mostly Cloudy 64 18 36 2 34 34 Calm 30 1016 10 16.0934 0 0
9:15 pm 21:15 Cloudy 63 17 37 3 39 39 ENE 6 9 30 1016 10 16.0934 0 0
9:35 pm 21:35 Mostly Cloudy 61 16 43 6 52 52 Calm 30.01 1016 10 16.0934 0 0
9:55 pm 21:55 Partly Cloudy 61 16 41 5 48 48 Calm 30.02 1016 10 16.0934 0 0
10:15 pm 22:15 Partly Cloudy 61 16 39 4 45 45 Calm 30.02 1016 10 16.0934 0 0
10:35 pm 22:35 Cloudy 59 15 43 6 55 55 Calm 30.01 1016 10 16.0934 0 0
10:55 pm 22:55 Mostly Cloudy 59 15 43 6 55 55 NNW 3 6 30.01 1016 10 16.0934 0 0
11:15 pm 23:15 Partly Cloudy 61 16 41 5 48 48 N 5 7 30.02 1016 10 16.0934 0 0
11:35 pm 23:35 Partly Cloudy 61 16 41 5 48 48 Calm 30.01 1016 10 16.0934 0 0
11:55 pm 23:55 Mostly Cloudy 59 15 41 5 51 51 Calm 30.01 1016 10 16.0934 0 0

Powered by AerisWeather